Location: *
(46.4833°N, 7.6667°E)
Time: 09:22:12
(UTC+00:00)

Cosmos 2298 Rocket - Pass Details

Date: 27 February 2020
Orbit: 776 x 784 km, 74.0° (Epoch: 27 March)

Event Time Altitude Azimuth Distance (km) Brightness Sun altitude
Rises 19:03:01 0° 340° (NNW) 3,285 7.7 -19.9°
Reaches altitude 10° 19:05:27 10° 344° (NNW) 2,352 6.8 -20.3°
Maximum altitude 19:10:45 60° 65° (ENE) 893 4.0 -21.2°
Enters shadow 19:12:03 46° 118° (ESE) 1,041 4.2 -21.4°
